Find Starlink 2097

NORAD ID: 47377 Int'l Des: 2021-005 Owner: SPXS Country: US Constellation: starlink operational
LEOCIRCULARSTARLINK_TYPE

当前视图

正在加载3D地球...

About Starlink 2097

Starlink 2097 (NORAD 47377) is a starlink constellation satellite (v1.0) launched Jan 20, 2021 by SPXS of US. It operates in LEO, CIRCULAR, STARLINK_TYPE orbit with a mass of 260.00 kg.

即将过境

Passes for default location (London). Set your location on the main map for personalized predictions.

高度历史

Loading altitude history...

两行轨道根数

1 47377U 21005AE 26236.63652943 .00001283 00000-0 53086-4 0 9993
2 47377 53.1612 4.7362 0001022 80.5941 279.5176 15.31697416308700
Epoch: Aug 24, 2026 • Age: 5 hours

当前状态

高度 474.1 km
远地点 / 近地点 N/A
速度 7.63 km/s
星下点 41.80°N, 129.15°E
发射日期 Jan 20, 2021
运行时间 5.5 years
类型 internet

技术详情

分类 Payload
质量 260.00 kg
干质量 248.00 kg
总质量 260.00 kg
长度 0.20 m
直径 2.80 m
跨度 9.00 m
形状 Box + pan
制造商 SPXS
平台类型 Starlink
阶段状态 In Orbit
所有者/国家 SPXS/US

Most Searched